Location: Newark
(14.9306°N, 3.4333°E)
Time: 00:13:46
(UTC+00:00)

First-Move - Pass Details

Date: 17 December 2019
Orbit: 576 x 669 km, 97.6° (Epoch: 23 January)

Event Time Altitude Azimuth Distance (km) Brightness Sun altitude
Rises 17:39:25 0° 175° (S) 2,998 ? -5.2°
Reaches altitude 10° 17:41:40 10° 178° (S) 2,082 ? -5.7°
Maximum altitude 17:46:10 63° 259° (W) 736 ? -6.7°
Drops below altitude 10° 17:50:37 10° 340° (NNW) 2,050 ? -7.7°
Sets 17:52:50 0° 344° (NNW) 2,948 ? -8.2°
